Home   Weather   Smara   Past weeks

Past Weather in Smara, Western Sahara — Yesterday and Last 2 Weeks

Now
70 °F

Partly cloudy.


Feels Like: 70 °F
Forecast: 74 / 107 °F
Wind: 24 mph from Northeast

Location: Laayoune/Hassan Isl

Current Time: Aug 18, 2017 at 7:49:35 am

Latest Report: Aug 18, 2017 at 7:00 am


Visibility: 4 mi

Pressure: 29.92 "Hg

Humidity: 88%

Dew Point: 66 °F

Location of SmaraLocation

Past Weather in Smara — Graph

°F

Smara Temperature Yesterday

Maximum temperature yesterday: 93 °F (at 4:00 pm)
Minimum temperature yesterday: 72 °F (at 12:00 am)
Average temperature yesterday: 78 °F

High & Low Weather Summary for the Past Weeks

 TemperatureHumidityPressure
High97 °F (Aug 7, 2:00 pm)100% (Aug 9, 8:00 am)30.07 "Hg (Aug 9, 8:00 am)
Low68 °F (Aug 3, 8:00 am)32% (Aug 9, 4:00 pm)29.74 "Hg (Aug 7, 4:00 pm)
Average77 °F67%29.94 "Hg
* Reported Aug 3 7:00 am — Aug 18 6:00 am, Smara. Weather by CustomWeather, © 2017

Note: Actual official high and low records may vary slightly from our data, if they occured in-between our weather recording intervals... More about our weather records

Advertising

Smara Weather History for the Previous 24 Hours

Scroll right to see more
 ConditionsComfort  
Time TempWeatherWind HumidityBarometerVisibility
6:00 am
Fri, Aug 18
70 °FPartly cloudy.21 mph88%29.92 "Hg4 mi
5:00 am70 °FOvercast.20 mph88%29.92 "Hg4 mi
4:00 am70 °FPassing clouds.18 mph88%29.92 "Hg4 mi
3:00 am70 °FPassing clouds.18 mph88%29.95 "Hg4 mi
2:00 am70 °FPassing clouds.21 mph88%29.95 "Hg4 mi
1:00 am70 °FPassing clouds.18 mph88%29.98 "Hg5 mi
12:00 am72 °FPassing clouds.21 mph83%29.98 "Hg5 mi
11:00 pm
Thu, Aug 17
72 °FClear.26 mph83%29.95 "Hg5 mi
10:00 pm73 °FClear.25 mph78%29.95 "Hg5 mi
9:00 pm77 °FClear.24 mph65%29.95 "Hg4 mi
8:00 pm81 °FClear.28 mph58%29.92 "Hg4 mi
7:00 pm88 °FClear.25 mph43%29.92 "Hg4 mi
6:00 pm90 °FClear.22 mph43%29.92 "Hg5 mi
5:00 pm93 °FClear.21 mph41%29.92 "Hg5 mi
4:00 pm93 °FClear.17 mph39%29.92 "Hg5 mi
3:00 pm90 °FClear.18 mph46%29.95 "Hg5 mi
2:00 pm88 °FClear.17 mph49%29.95 "Hg5 mi
1:00 pm88 °FClear.14 mph49%29.98 "Hg5 mi
12:00 pm82 °FScattered clouds.13 mph58%29.98 "Hg5 mi
11:00 am77 °FClear.13 mph69%30.01 "Hg5 mi
10:00 am75 °FScattered clouds.8 mph74%30.01 "Hg5 mi
9:00 am72 °FScattered clouds.7 mph83%30.01 "Hg5 mi
8:00 am72 °FPassing clouds.10 mph83%29.98 "Hg5 mi
7:00 am72 °FPassing clouds.12 mph83%29.98 "Hg5 mi
Weather by CustomWeather, © 2017

See weather overviewHow to use our weather pages